sat.trackr.live / text

‹ back to catalog

STARLINK-32390

NORAD 61630 · 2024-191K

PAYLOAD ACTIVE UNKNOWN

§ Identity

Operator
Country
US
Launch date
2024-10-23
Launch site
AFETR
Launch vehicle
Mass (kg)
RCS (m²)

Purposes: comms

External: N2YO · Heavens-Above · Gunter

§ Orbital elements

Epoch: 2026-09-21T07:46:41.328480Z

Period
94.27 min
Inclination
43.0005°
Eccentricity
0.0001074
Mean motion
15.27575459 rev/d
Perigee alt
482.3 km
Apogee alt
483.8 km
Semi-major
6,861.2 km
B*
5.5951e-6
RAAN
129.8779°
Arg perigee
271.9039°
Mean anomaly
88.1689°
Rev number
10,745

§ Raw data

STARLINK-323901 61630U 24191K   26264.32408945 -.00000108  00000+0  55951-5 0  99972 61630  43.0005 129.8779 0001074 271.9039  88.1689 15.27575459107453

JSON: /api/v1/satellites/61630 · /tle

For live sub-satellite position, see the globe view (requires WebGL).

§ Visibility from observer

Set your observer location to see the next 7 days of passes ≥ 10°. The values pass through the URL so the page stays shareable.

No JS? Fill the form by hand. The geolocation button needs JavaScript.